Temp
73 73 74 75 75 74 74 73 74 73 75 77 79 79 79 81 82 80 77 82 81 81 82 81 82 81 81 80 80 80 80 80 80 80 80 80 80 79 79 79 79 79 79
74 74 73 75 77 78 75 74 73 73 74 75 75 76 76 79 81 81 79 80 82 81 82 82 82 82 82 80 80 80 80 81 80 80 79 79 79 79 79 79 79 79 79
74 75 73 75 80 75 76 75 75 74 73 76 75 77 78 81 82 82 80 77 79 81 82 82 81 81 81 81 81 80 79 79 80 79 78 78 78 78 78 78 79 79 77
75 74 73 71 73 75 74 72 73 72 72 72 73 75 79 80 81 80 82 80 80 81 81 82 81 81 81 82 82 82 80 79 78 78 78 78 78 77 78 78 78 78 76
77 75 72 73 74 72 73 72 72 72 71 71 74 74 77 78 78 84 81 82 78 79 78 80 80 80 80 80 80 79 80 80 79 78 78 78 78 78 77 77 77 77 77
76 74 72 72 71 70 70 72 72 72 72 71 75 73 75 75 75 78 77 79 75 75 75 74 73 74 79 80 78 78 79 79 80 79 79 78 78 78 77 77 77 77 76
75 73 71 71 71 70 70 72 72 71 70 70 68 68 70 74 71 76 75 74 73 75 75 72 71 71 74 76 75 76 78 78 80 80 79 78 78 78 77 77 76 76 76
73 73 72 71 73 71 71 71 71 69 70 70 67 66 65 67 70 71 71 71 71 74 73 73 74 74 72 73 72 75 77 78 79 81 79 78 77 77 77 77 76 75 75
73 73 73 72 72 72 70 71 70 69 67 69 70 66 62 61 64 68 68 67 69 71 72 72 73 73 74 72 75 75 76 75 79 80 80 78 77 77 77 76 75 75 75
74 73 73 73 71 71 70 70 71 69 68 66 68 70 69 68 62 61 66 66 69 70 69 69 71 72 72 72 74 74 74 74 77 78 79 79 77 76 76 75 75 74 73
73 73 71 71 71 71 71 71 70 69 68 67 67 68 69 68 67 63 61 63 68 67 67 68 68 70 71 71 70 73 75 76 76 77 77 77 76 76 75 75 75 74 74
71 72 71 70 71 71 70 70 71 70 70 69 69 68 67 65 65 65 64 64 65 65 66 67 66 69 70 71 74 75 75 74 73 73 74 75 75 76 76 76 75 75 75
70 70 71 69 68 69 69 70 70 71 70 69 69 68 69 69 68 67 66 65 64 65 64 65 66 69 70 69 70 73 73 71 71 70 71 72 73 74 75 76 76 76 76
70 72 71 71 71 71 71 70 69 70 71 70 70 68 69 69 69 67 66 65 63 63 64 63 66 67 68 68 71 71 69 70 69 69 68 69 69 71 72 73 74 73 74
73 73 73 72 72 72 72 71 69 69 69 69 70 69 69 70 70 69 69 68 65 61 61 62 63 67 68 68 69 67 67 69 69 68 67 67 67 68 68 69 69 69 70
74 73 74 73 72 72 72 70 69 70 68 68 69 69 70 70 70 69 69 68 68 64 61 63 63 65 67 68 69 65 66 67 68 67 66 66 66 66 67 67 67 68 68
73 74 74 72 72 71 71 70 69 69 69 69 70 70 70 70 69 68 68 68 68 67 62 63 63 65 65 66 66 65 64 61 63 66 66 65 65 65 65 66 66 66 66
73 73 74 72 72 73 72 73 73 72 70 69 70 70 70 72 69 68 68 68 67 67 63 61 62 62 63 65 65 64 66 65 61 65 65 64 64 64 63 63 63 63 63
73 73 73 72 72 72 73 74 73 72 73 71 73 73 71 69 68 68 68 67 66 66 64 62 61 61 62 64 64 65 65 61 63 66 65 64 63 63 62 61 60 59 59
72 72 73 75 75 74 74 74 73 71 71 71 73 73 70 68 66 67 67 66 65 64 63 62 61 60 60 62 63 61 60 59 57 64 64 62 62 63 62 61 61 60 57
73 75 75 74 74 71 72 71 73 70 69 70 71 69 68 67 67 66 66 67 67 63 62 60 59 59 59 60 61 62 61 58 57 57 56 57 56 56 57 61 62 62 58
72 71 70 71 69 70 66 68 68 67 67 68 67 67 66 66 66 66 66 66 66 65 62 60 59 59 60 61 62 63 61 58 55 59 58 55 56 55 56 54 61 60 58
71 70 70 70 69 66 63 64 66 64 65 66 68 67 68 70 66 64 65 65 65 66 66 64 61 60 60 62 63 62 61 63 58 61 61 54 58 55 60 60 60 59 58
70 70 69 69 68 65 61 61 63 63 63 67 69 69 66 66 65 64 62 63 64 66 66 68 65 63 64 64 65 65 62 61 62 63 62 58 60 60 63 60 61 59 57
70 69 69 69 67 62 58 58 61 61 62 64 67 68 68 65 63 63 66 64 62 61 60 62 63 62 62 62 65 64 60 59 58 59 60 61 60 58 57 54 58 59 57
70 69 69 69 66 64 55 55 59 60 60 61 63 66 65 65 60 60 63 62 62 62 62 61 61 61 61 61 62 65 64 60 60 58 61 60 58 61 58 58 56 57 55
MSLP
1015.36 1015.28 1015.23 1015.25 1015.36 1015.58 1015.83 1016.17 1016.36 1016.52 1016.66 1016.65 1016.66 1016.66 1016.72 1016.72 1016.63 1016.94 1017.16 1017.37 1017.62 1017.87 1018.08 1018.27 1018.03 1018.26 1018.66 1019.02 1019.21 1019.40 1019.57 1019.83 1019.98 1020.15 1020.40 1020.54 1020.51 1020.48 1020.51 1020.64 1020.83 1020.96 1021.03
1014.69 1014.83 1015.06 1015.02 1015.00 1015.07 1015.30 1015.47 1015.87 1016.09 1016.31 1016.22 1016.55 1016.66 1016.60 1016.47 1016.40 1016.58 1017.03 1016.80 1017.09 1017.36 1017.63 1017.61 1017.86 1017.98 1018.19 1018.45 1018.84 1019.09 1019.29 1019.41 1019.61 1019.90 1020.00 1020.16 1020.27 1020.33 1020.34 1020.39 1020.50 1020.54 1020.72
1014.13 1014.35 1014.73 1014.86 1014.61 1014.92 1014.96 1015.17 1015.39 1015.69 1016.09 1015.96 1016.23 1016.07 1016.14 1016.00 1015.85 1016.06 1016.41 1016.77 1016.80 1016.97 1017.01 1017.28 1017.53 1017.66 1017.94 1018.21 1018.40 1018.65 1018.98 1019.20 1019.29 1019.51 1019.72 1019.82 1020.00 1020.14 1020.21 1020.24 1020.22 1020.28 1020.39
1013.71 1013.90 1014.80 1015.58 1015.18 1015.14 1015.24 1015.26 1015.33 1015.70 1016.02 1016.21 1016.11 1015.94 1015.90 1015.62 1015.59 1015.82 1015.89 1016.26 1016.36 1016.49 1016.67 1016.89 1017.04 1017.27 1017.49 1017.62 1017.83 1018.03 1018.31 1018.53 1018.87 1019.10 1019.31 1019.37 1019.47 1019.75 1019.79 1019.93 1019.97 1019.94 1020.09
1013.37 1013.74 1014.64 1014.93 1014.90 1015.54 1015.32 1015.09 1015.14 1015.40 1015.99 1016.14 1016.12 1015.96 1015.82 1015.64 1015.67 1015.49 1015.57 1015.59 1016.01 1016.20 1016.25 1016.21 1016.73 1016.96 1017.00 1017.28 1017.55 1017.71 1017.71 1017.91 1018.20 1018.51 1018.77 1018.87 1018.92 1019.18 1019.28 1019.40 1019.48 1019.59 1019.70
1013.20 1013.57 1014.44 1014.79 1015.23 1016.07 1015.49 1014.98 1014.97 1015.33 1015.57 1015.91 1016.14 1016.09 1015.77 1015.56 1015.63 1015.74 1015.76 1015.74 1015.90 1015.83 1016.17 1016.52 1017.03 1017.20 1017.04 1016.83 1016.86 1016.91 1017.37 1017.49 1017.67 1017.84 1018.19 1018.25 1018.32 1018.53 1018.72 1018.86 1018.92 1019.08 1019.28
1013.03 1013.27 1013.90 1014.81 1014.86 1015.35 1015.00 1014.84 1014.98 1015.34 1015.72 1015.97 1016.43 1016.41 1015.96 1015.59 1015.64 1015.48 1015.32 1015.71 1015.93 1015.65 1015.61 1016.16 1017.04 1017.18 1017.00 1016.76 1016.30 1016.32 1016.47 1017.00 1017.09 1017.17 1017.45 1017.83 1017.82 1018.04 1018.24 1018.40 1018.46 1018.61 1018.89
1012.83 1012.92 1013.45 1013.92 1014.15 1014.39 1014.61 1014.73 1014.90 1015.40 1015.70 1015.86 1016.41 1016.70 1016.52 1016.07 1015.76 1016.06 1015.97 1016.09 1016.11 1015.60 1015.92 1016.32 1016.28 1016.30 1016.59 1016.23 1016.00 1015.98 1016.30 1016.58 1016.73 1016.66 1016.92 1017.20 1017.29 1017.63 1017.78 1017.97 1018.10 1018.32 1018.57
1012.39 1012.58 1012.84 1013.45 1013.72 1014.00 1014.25 1014.49 1014.80 1015.30 1015.76 1015.81 1015.89 1016.29 1016.60 1016.54 1016.46 1016.37 1016.39 1016.34 1016.45 1016.51 1016.29 1016.30 1016.22 1016.18 1015.99 1015.85 1015.77 1015.66 1016.05 1016.35 1016.16 1016.20 1016.42 1016.69 1016.90 1017.20 1017.26 1017.52 1017.71 1018.00 1018.19
1012.18 1012.39 1012.54 1012.99 1013.74 1014.02 1014.33 1014.54 1014.70 1015.00 1015.50 1015.70 1015.71 1015.62 1015.74 1016.09 1016.60 1017.02 1016.74 1016.66 1016.34 1016.53 1016.74 1016.40 1016.53 1016.23 1016.02 1015.86 1015.79 1015.89 1015.99 1016.00 1015.80 1015.71 1015.86 1016.22 1016.64 1016.95 1017.12 1017.40 1017.67 1017.99 1018.24
1012.12 1012.26 1012.58 1012.89 1013.46 1013.85 1014.20 1014.47 1014.63 1014.75 1015.01 1015.29 1015.39 1015.47 1015.63 1015.87 1016.14 1016.68 1016.99 1016.88 1016.77 1016.92 1017.08 1016.90 1016.67 1016.34 1015.93 1015.94 1016.10 1015.89 1015.75 1015.77 1015.61 1015.67 1015.84 1016.29 1016.58 1016.94 1017.20 1017.40 1017.55 1017.87 1018.13
1012.35 1012.62 1012.70 1012.95 1013.27 1013.74 1014.03 1014.26 1014.37 1014.46 1014.48 1014.53 1014.70 1014.82 1015.03 1015.38 1015.75 1016.17 1016.51 1016.59 1016.77 1017.13 1017.39 1017.27 1016.97 1016.41 1016.27 1016.19 1016.14 1016.04 1015.92 1015.88 1015.93 1016.10 1016.26 1016.56 1016.88 1017.13 1017.32 1017.46 1017.54 1017.74 1017.96
1012.36 1012.55 1012.82 1013.04 1013.27 1013.46 1013.68 1013.96 1014.09 1014.07 1014.22 1014.22 1014.18 1014.43 1014.61 1014.61 1014.80 1015.28 1015.76 1015.96 1016.54 1017.11 1017.42 1017.47 1017.22 1016.71 1016.54 1016.59 1016.68 1016.45 1016.41 1016.33 1016.48 1016.68 1016.91 1017.00 1017.13 1017.15 1017.51 1017.53 1017.72 1017.88 1017.99
1011.80 1012.12 1012.43 1012.74 1012.93 1013.17 1013.43 1013.54 1013.67 1013.65 1013.65 1013.87 1013.91 1014.01 1014.22 1014.29 1014.44 1014.73 1015.04 1015.44 1016.15 1016.77 1017.10 1017.15 1017.16 1016.84 1016.73 1016.83 1016.87 1017.06 1017.03 1016.91 1017.11 1017.26 1017.39 1017.47 1017.56 1017.59 1017.74 1017.76 1017.88 1018.09 1018.32
1011.44 1011.90 1012.08 1012.41 1012.70 1012.86 1013.09 1013.28 1013.41 1013.55 1013.68 1013.70 1013.55 1013.68 1013.91 1013.67 1013.83 1013.99 1014.01 1014.46 1015.18 1016.16 1016.56 1016.94 1017.08 1016.88 1016.90 1016.96 1017.21 1017.46 1017.51 1017.57 1017.57 1017.70 1017.69 1017.90 1017.90 1018.12 1018.21 1018.34 1018.52 1018.68 1018.99
1010.87 1011.21 1011.57 1011.83 1012.25 1012.44 1012.72 1012.96 1013.22 1013.31 1013.46 1013.46 1013.43 1013.39 1013.57 1013.36 1013.29 1013.59 1013.86 1014.09 1014.36 1015.08 1016.05 1016.50 1016.88 1017.04 1016.94 1017.05 1017.32 1017.74 1017.97 1018.06 1018.09 1018.17 1018.02 1018.19 1018.36 1018.47 1018.59 1018.77 1019.01 1019.22 1019.54
1010.53 1010.77 1010.90 1011.25 1011.65 1012.03 1012.31 1012.67 1012.89 1012.94 1013.13 1013.20 1013.27 1013.23 1013.16 1013.01 1013.19 1013.26 1013.51 1013.63 1013.96 1014.39 1015.26 1016.25 1016.66 1017.00 1017.20 1017.24 1017.59 1018.02 1018.33 1018.55 1018.49 1018.33 1018.34 1018.64 1018.76 1018.86 1019.10 1019.41 1019.68 1019.86 1020.06
1010.56 1010.79 1010.86 1011.16 1011.41 1011.56 1011.78 1012.07 1012.28 1012.43 1012.78 1012.86 1012.93 1012.94 1012.91 1012.83 1013.03 1013.13 1013.23 1013.32 1013.48 1013.69 1014.64 1015.72 1016.02 1017.02 1017.16 1017.19 1017.38 1017.88 1018.21 1018.59 1018.67 1018.48 1018.55 1018.84 1018.95 1019.13 1019.46 1019.66 1019.93 1020.19 1020.42
1010.30 1010.57 1010.76 1011.06 1011.12 1011.19 1011.33 1011.44 1011.58 1011.86 1012.17 1012.35 1012.35 1012.48 1012.58 1012.79 1013.11 1013.07 1013.07 1013.04 1013.09 1013.54 1014.21 1014.89 1015.88 1016.81 1017.16 1017.20 1017.32 1017.80 1018.14 1018.79 1018.87 1018.88 1018.90 1019.08 1019.07 1019.25 1019.67 1019.97 1020.18 1020.38 1020.57
1010.24 1010.44 1010.46 1010.55 1010.76 1010.95 1011.12 1011.22 1011.49 1011.72 1011.82 1011.92 1012.09 1012.06 1012.52 1012.88 1013.12 1013.10 1013.04 1013.07 1013.44 1014.02 1014.50 1014.81 1015.68 1016.50 1016.97 1017.11 1017.24 1017.80 1018.39 1018.90 1019.22 1019.00 1019.23 1019.63 1019.49 1019.59 1019.83 1020.10 1020.15 1020.38 1020.70
1010.09 1010.14 1010.22 1010.39 1010.61 1010.80 1011.12 1011.25 1011.44 1011.70 1011.84 1011.84 1011.75 1012.13 1012.43 1012.65 1012.86 1013.03 1013.09 1013.25 1013.58 1014.20 1014.80 1015.32 1015.76 1016.24 1016.74 1016.96 1017.14 1017.58 1018.10 1018.64 1018.95 1019.04 1019.36 1019.58 1019.61 1019.86 1020.06 1020.21 1020.29 1020.42 1020.72
1010.15 1010.28 1010.25 1010.34 1010.75 1010.83 1011.02 1011.24 1011.49 1011.75 1011.96 1012.07 1011.93 1012.10 1012.50 1012.68 1012.89 1013.08 1013.11 1013.14 1013.43 1013.95 1014.61 1015.17 1015.69 1016.04 1016.22 1016.43 1016.71 1017.09 1017.67 1018.25 1018.59 1018.41 1018.73 1019.32 1019.39 1019.72 1019.88 1020.15 1020.18 1020.39 1020.58
1009.95 1010.40 1010.62 1010.56 1010.60 1010.89 1011.13 1011.28 1011.35 1011.66 1011.93 1011.93 1012.02 1011.97 1012.31 1012.59 1012.80 1013.00 1013.26 1013.50 1013.64 1013.80 1014.00 1014.40 1015.07 1015.57 1015.92 1016.03 1016.48 1016.88 1017.15 1017.32 1017.43 1017.51 1018.24 1018.86 1019.05 1019.24 1019.13 1019.48 1019.76 1019.99 1020.32
1009.61 1010.04 1010.41 1010.46 1010.78 1010.77 1010.87 1011.32 1011.60 1011.71 1011.72 1011.55 1011.71 1011.83 1012.08 1012.51 1012.77 1012.97 1013.18 1013.60 1013.79 1013.93 1014.00 1014.09 1014.41 1014.80 1015.20 1015.59 1015.70 1016.01 1016.59 1016.97 1017.15 1017.23 1017.65 1018.09 1018.26 1018.42 1018.51 1018.93 1019.17 1019.59 1019.86
1009.20 1009.96 1010.39 1010.62 1010.68 1010.94 1010.64 1011.28 1011.55 1011.77 1011.77 1011.54 1011.45 1011.75 1011.95 1012.43 1012.74 1013.06 1012.82 1013.41 1013.89 1013.98 1013.95 1013.89 1014.02 1014.28 1014.66 1015.13 1015.43 1016.13 1016.45 1016.86 1017.11 1017.14 1017.11 1017.55 1017.61 1018.14 1018.40 1018.63 1018.60 1018.91 1019.36
1008.53 1009.25 1009.79 1010.56 1010.77 1010.84 1010.73 1011.10 1011.40 1011.61 1011.86 1011.74 1011.69 1011.83 1011.81 1012.33 1012.61 1012.79 1013.07 1013.18 1013.45 1013.70 1013.83 1014.00 1014.19 1014.32 1014.50 1014.82 1015.22 1015.37 1015.81 1016.22 1016.57 1016.93 1016.72 1017.33 1017.34 1017.51 1018.19 1018.05 1018.21 1018.57 1019.10
Wind_Speed
4 4 5 4 5 4 5 5 5 5 5 6 5 5 4 5 4 3 3 15 15 14 14 14 16 17 15 13 13 13 13 12 12 12 11 11 10 10 10 9 8 7 8
5 5 5 5 6 6 6 5 5 5 5 4 3 5 6 6 5 5 4 9 17 15 15 15 16 15 16 15 14 14 13 13 12 13 12 12 11 9 9 11 10 9 6
6 6 5 5 7 4 6 4 5 4 3 3 5 4 5 6 3 2 5 4 6 15 17 15 15 15 13 12 12 13 13 13 13 13 14 13 11 10 9 10 11 9 7
7 5 2 4 4 4 5 5 4 4 3 2 3 4 4 4 5 5 4 5 6 6 12 15 15 13 13 13 12 13 14 14 14 14 13 14 14 12 11 11 11 9 9
6 5 4 3 7 5 3 4 2 5 3 3 4 4 4 4 4 3 5 5 5 4 4 10 13 12 12 9 6 8 11 15 16 15 15 15 14 14 13 12 11 11 10
6 4 3 5 10 6 2 1 2 2 3 3 1 4 4 3 1 3 4 2 4 4 1 3 5 4 10 9 9 11 18 17 17 17 16 16 14 14 14 14 13 12 9
6 5 3 4 5 5 4 1 2 4 2 2 2 3 4 3 3 4 2 0 3 3 3 1 5 3 4 9 5 17 21 17 17 17 16 15 14 14 13 14 14 12 11
6 5 4 4 4 2 4 4 3 1 2 3 3 1 2 5 1 1 4 2 1 1 2 5 6 7 6 5 12 22 22 22 20 18 16 13 13 12 12 13 13 12 12
6 8 8 4 4 3 4 3 4 5 3 1 5 4 1 4 1 3 4 4 5 4 4 4 4 3 1 4 9 12 21 23 19 16 15 13 11 11 9 9 9 10 9
4 6 8 7 3 3 3 3 2 3 3 4 1 4 3 4 3 1 2 3 3 4 4 3 4 3 2 1 4 1 4 5 9 11 13 12 9 9 7 8 7 8 8
4 3 4 7 7 4 4 4 4 4 4 4 4 2 2 1 2 3 3 1 2 3 3 3 4 4 4 4 2 3 2 4 5 7 9 10 10 11 9 8 7 8 8
3 4 4 4 4 5 5 4 4 4 2 3 3 4 4 4 3 3 2 2 3 2 2 3 3 3 3 4 6 8 9 10 10 10 10 10 10 10 9 9 9 9 11
3 5 5 5 4 5 5 5 4 4 5 3 2 2 3 3 3 3 3 3 3 2 2 1 2 2 3 4 4 9 11 12 11 10 10 10 9 9 8 8 8 9 13
4 6 6 6 6 6 5 5 3 3 3 4 5 5 4 4 4 4 4 4 2 2 2 3 1 2 3 3 8 10 6 13 12 11 11 12 11 10 8 7 7 10 12
5 6 7 6 6 6 6 5 3 3 2 3 3 2 3 3 3 4 4 4 4 4 2 2 2 1 2 3 6 5 5 10 11 10 11 11 11 12 12 12 13 14 15
6 7 6 7 6 4 4 5 3 3 4 3 3 3 4 3 2 3 4 3 4 4 3 2 2 2 2 3 8 6 6 8 10 9 11 11 11 11 12 12 13 14 15
6 5 6 7 7 7 6 5 5 5 6 5 5 5 5 4 3 3 3 3 4 4 5 2 2 2 2 6 5 5 5 4 4 10 10 10 10 11 11 11 12 12 13
4 4 5 6 6 6 6 6 6 2 6 6 6 4 2 0 1 3 3 4 4 6 4 8 2 2 2 4 5 6 5 4 3 9 10 10 11 11 10 11 10 10 11
6 5 5 6 5 4 4 6 6 3 2 0 3 3 2 2 1 1 2 3 3 4 5 6 4 2 1 2 4 3 6 5 3 10 9 9 10 11 11 10 9 9 9
6 6 7 7 6 4 3 4 5 4 2 2 4 3 4 5 3 3 3 3 6 5 5 6 4 3 2 1 3 4 5 2 2 4 6 4 7 10 10 10 10 10 8
7 7 6 6 5 5 3 2 5 3 4 3 3 6 5 6 6 4 1 4 7 5 5 5 4 3 3 3 5 3 4 4 2 3 3 3 3 3 4 8 9 12 10
6 6 6 6 6 4 9 6 5 5 3 3 3 6 6 8 6 6 7 6 7 9 5 4 3 5 5 5 5 6 5 4 3 3 3 4 4 4 5 4 11 11 12
6 5 5 6 7 6 9 7 7 5 3 3 3 5 6 5 6 5 6 7 7 4 7 5 7 6 7 8 7 6 6 6 4 5 4 3 5 4 6 7 15 15 14
7 6 6 6 5 6 11 9 6 5 3 4 5 4 7 7 5 7 6 6 6 4 5 4 5 5 5 7 10 7 4 3 2 2 4 4 6 6 5 6 16 17 17
6 5 4 6 6 6 10 9 7 4 3 3 4 5 6 7 5 6 6 7 5 2 4 5 6 9 10 11 8 5 4 3 3 3 4 3 3 4 4 4 6 19 18
6 6 6 5 7 7 8 10 7 4 4 3 3 3 9 7 9 8 5 6 6 5 6 4 2 2 7 9 12 9 6 6 5 3 4 4 3 3 3 3 5 7 8
Wind_Direction
214 196 197 186 189 183 190 186 194 205 211 234 203 199 239 255 287 166 167 184 187 199 193 195 191 194 201 206 209 210 212 218 216 216 221 233 224 217 209 205 208 219 220
200 200 205 204 206 190 193 178 191 195 209 216 209 217 230 240 228 153 185 191 195 194 204 200 204 201 207 214 211 216 220 222 222 222 221 227 231 232 227 207 213 214 218
216 206 210 207 208 181 180 172 186 181 191 222 229 230 231 242 261 226 166 195 196 205 207 212 211 209 218 225 222 221 226 230 228 228 225 226 227 224 219 218 221 225 176
213 213 211 47 304 184 191 174 165 159 203 207 238 259 232 223 236 233 208 189 202 202 214 213 213 207 213 223 226 225 227 225 233 231 224 225 225 225 217 220 222 216 182
209 209 145 156 36 298 231 182 147 147 189 235 236 245 235 216 231 260 231 222 198 208 210 218 215 210 178 193 237 275 261 235 229 231 230 227 224 224 220 214 215 212 197
218 208 162 151 156 227 279 203 129 208 186 208 334 317 270 230 205 220 255 212 80 139 97 71 35 239 200 228 223 246 266 268 243 231 226 225 223 223 222 217 209 209 213
222 209 198 187 169 185 191 177 151 212 289 97 56 309 300 237 263 265 268 163 198 208 179 254 208 219 226 176 272 261 262 254 261 239 226 224 222 226 226 224 216 211 215
212 189 219 216 226 185 181 169 155 165 257 147 170 137 329 320 338 4 25 33 243 241 206 220 211 204 205 213 227 247 250 250 263 238 230 218 221 222 227 226 217 214 223
214 193 188 216 217 188 205 172 173 180 212 285 206 154 130 230 356 2 31 42 22 38 13 11 24 39 102 200 232 245 239 249 239 236 229 222 220 218 216 220 216 223 220
177 190 198 177 200 164 205 219 179 189 157 229 305 213 210 148 171 321 340 348 60 50 51 334 353 2 13 217 77 243 216 246 247 231 224 215 195 169 162 151 154 158 164
155 165 173 172 182 184 195 213 215 215 205 209 198 218 217 194 149 138 234 333 50 54 7 23 337 339 37 69 58 48 112 169 133 134 140 149 143 144 145 151 162 175 172
166 163 158 154 171 176 193 211 227 231 196 210 229 187 178 170 182 166 188 175 170 97 41 354 349 347 45 69 76 76 80 88 92 94 103 119 130 138 142 148 147 156 163
165 181 175 180 179 184 185 194 222 207 201 196 220 199 210 214 149 168 167 207 136 151 150 43 339 351 62 68 67 71 81 85 89 92 98 99 105 121 145 148 154 158 146
185 175 184 191 194 189 191 198 219 235 204 221 210 205 215 210 191 183 188 153 130 141 175 157 355 45 65 99 104 81 77 85 85 85 86 85 83 88 100 104 136 140 140
167 181 186 188 200 191 195 198 199 196 177 217 198 283 257 247 221 220 210 183 157 172 170 169 159 177 124 111 114 81 71 91 97 98 100 98 92 88 86 87 94 98 102
162 177 187 184 183 189 189 180 195 208 212 237 245 234 261 262 266 229 214 213 166 153 145 142 169 159 147 112 125 108 104 101 106 107 107 106 107 104 102 100 101 104 109
149 150 148 140 165 180 186 181 204 217 224 232 234 221 249 228 239 257 242 220 184 167 133 131 118 149 127 132 118 124 114 95 102 108 108 112 112 109 107 103 104 108 114
138 173 163 159 166 177 180 194 209 180 214 232 229 207 270 45 311 241 237 240 211 171 134 143 126 134 157 150 147 147 147 133 124 113 112 120 120 120 118 119 121 124 125
173 199 148 151 175 185 176 190 161 138 92 295 199 143 44 347 348 319 289 287 166 119 126 144 133 132 122 160 134 135 144 125 129 130 124 132 130 128 129 131 131 129 133
179 201 190 182 190 182 190 177 162 165 182 175 198 134 93 91 84 43 15 86 105 105 118 131 128 132 139 141 115 137 132 115 143 160 149 151 141 146 147 149 149 148 154
192 210 173 173 178 133 99 201 167 162 214 218 131 109 126 129 113 94 114 135 124 122 135 139 141 124 151 155 173 161 146 159 167 170 148 174 151 142 174 169 173 170 172
207 174 167 167 147 141 142 131 127 125 92 49 195 147 141 128 121 107 65 82 147 145 147 142 148 180 189 173 170 177 159 166 199 191 150 192 166 185 187 192 194 183 180
173 186 192 182 181 155 150 138 125 122 122 95 97 133 161 155 139 129 100 84 73 107 152 150 166 183 179 190 175 179 201 198 193 165 152 198 180 201 198 202 197 190 185
182 179 199 194 180 165 156 151 148 151 158 135 98 91 138 150 155 159 152 160 160 150 177 178 178 181 188 184 194 192 185 141 55 127 169 199 185 209 185 197 197 193 190
163 176 199 205 167 169 157 158 163 161 163 134 95 120 107 121 129 149 114 146 140 125 85 112 143 169 171 179 181 145 164 150 206 232 189 164 213 169 176 208 201 194 189
164 168 168 189 166 174 184 167 181 157 171 145 109 107 130 136 123 92 110 145 163 189 170 165 167 153 183 185 183 193 176 189 187 198 190 177 217 147 181 206 181 184 193